Year,Month,Day,Hour,Minute,Value (Times are PST for temperature in C)
2006,05,03,00,00,5.60
2006,05,03,00,01,5.60
2006,05,03,00,02,5.60
2006,05,03,00,03,5.50
2006,05,03,00,04,5.50
2006,05,03,00,05,5.50
2006,05,03,00,06,5.50
2006,05,03,00,07,5.50
2006,05,03,00,08,5.40
2006,05,03,00,09,5.40
2006,05,03,00,10,5.40
2006,05,03,00,11,5.40
2006,05,03,00,12,5.30
2006,05,03,00,13,5.30
2006,05,03,00,14,5.30
2006,05,03,00,15,5.30
2006,05,03,00,16,5.30
2006,05,03,00,17,5.20
2006,05,03,00,18,5.20
2006,05,03,00,19,5.20
2006,05,03,00,20,5.10
2006,05,03,00,21,5.10
2006,05,03,00,22,5.10
2006,05,03,00,23,5.10
2006,05,03,00,24,5.10
2006,05,03,00,25,5.10
2006,05,03,00,26,5.10
2006,05,03,00,27,5.10
2006,05,03,00,28,5.10
2006,05,03,00,29,5.10
2006,05,03,00,30,5.00
2006,05,03,00,31,4.90
2006,05,03,00,32,4.90
2006,05,03,00,33,4.90
2006,05,03,00,34,4.90
2006,05,03,00,35,4.90
2006,05,03,00,36,4.90
2006,05,03,00,37,4.80
2006,05,03,00,38,4.80
2006,05,03,00,39,4.80
2006,05,03,00,40,4.80
2006,05,03,00,41,4.80
2006,05,03,00,42,4.80
2006,05,03,00,43,4.80
2006,05,03,00,44,4.70
2006,05,03,00,45,4.70
2006,05,03,00,46,4.70
2006,05,03,00,47,4.70
2006,05,03,00,48,4.70
2006,05,03,00,49,4.70
2006,05,03,00,50,4.60
2006,05,03,00,51,4.60
2006,05,03,00,52,4.60
2006,05,03,00,53,4.60
2006,05,03,00,54,4.60
2006,05,03,00,55,4.60
2006,05,03,00,56,4.60
2006,05,03,00,57,4.60
2006,05,03,00,58,4.60
2006,05,03,00,59,4.60
2006,05,03,01,00,4.60
2006,05,03,01,01,4.60
2006,05,03,01,02,4.60
2006,05,03,01,03,4.60
2006,05,03,01,04,4.60
2006,05,03,01,05,4.60
2006,05,03,01,06,4.60
2006,05,03,01,07,4.50
2006,05,03,01,08,4.50
2006,05,03,01,09,4.50
2006,05,03,01,10,4.50
2006,05,03,01,11,4.50
2006,05,03,01,12,4.50
2006,05,03,01,13,4.50
2006,05,03,01,14,4.40
2006,05,03,01,15,4.40
2006,05,03,01,16,4.40
2006,05,03,01,17,4.40
2006,05,03,01,18,4.40
2006,05,03,01,19,4.40
2006,05,03,01,20,4.40
2006,05,03,01,21,4.40
2006,05,03,01,22,4.40
2006,05,03,01,23,4.30
2006,05,03,01,24,4.30
2006,05,03,01,25,4.30
2006,05,03,01,26,4.30
2006,05,03,01,27,4.30
2006,05,03,01,28,4.30
2006,05,03,01,29,4.30
2006,05,03,01,30,4.30
2006,05,03,01,31,4.20
2006,05,03,01,32,4.20
2006,05,03,01,33,4.20
2006,05,03,01,34,4.20
2006,05,03,01,35,4.20
2006,05,03,01,36,4.20
2006,05,03,01,37,4.20
2006,05,03,01,38,4.20
2006,05,03,01,39,4.20
2006,05,03,01,40,4.20
2006,05,03,01,41,4.20
2006,05,03,01,42,4.20
2006,05,03,01,43,4.10
2006,05,03,01,44,4.10
2006,05,03,01,45,4.10
2006,05,03,01,46,4.10
2006,05,03,01,47,4.10
2006,05,03,01,48,4.10
2006,05,03,01,49,4.10
2006,05,03,01,50,4.00
2006,05,03,01,51,4.00
2006,05,03,01,52,4.00
2006,05,03,01,53,4.00
2006,05,03,01,54,4.00
2006,05,03,01,55,3.90
2006,05,03,01,56,3.90
2006,05,03,01,57,3.90
2006,05,03,01,58,3.90
2006,05,03,01,59,3.80
2006,05,03,02,00,3.80
2006,05,03,02,01,3.80
2006,05,03,02,02,3.80
2006,05,03,02,03,3.80
2006,05,03,02,04,3.80
2006,05,03,02,05,3.80
2006,05,03,02,06,3.70
2006,05,03,02,07,3.70
2006,05,03,02,08,3.70
2006,05,03,02,09,3.60
2006,05,03,02,10,3.60
2006,05,03,02,11,3.60
2006,05,03,02,12,3.60
2006,05,03,02,13,3.60
2006,05,03,02,14,3.60
2006,05,03,02,15,3.60
2006,05,03,02,16,3.60
2006,05,03,02,17,3.60
2006,05,03,02,18,3.50
2006,05,03,02,19,3.50
2006,05,03,02,20,3.50
2006,05,03,02,21,3.50
2006,05,03,02,22,3.50
2006,05,03,02,23,3.50
2006,05,03,02,24,3.50
2006,05,03,02,25,3.50
2006,05,03,02,26,3.50
2006,05,03,02,27,3.50
2006,05,03,02,28,3.50
2006,05,03,02,29,3.50
2006,05,03,02,30,3.50
2006,05,03,02,31,3.50
2006,05,03,02,32,3.50
2006,05,03,02,33,3.50
2006,05,03,02,34,3.50
2006,05,03,02,35,3.50
2006,05,03,02,36,3.50
2006,05,03,02,37,3.50
2006,05,03,02,38,3.50
2006,05,03,02,39,3.50
2006,05,03,02,40,3.50
2006,05,03,02,41,3.40
2006,05,03,02,42,3.40
2006,05,03,02,43,3.40
2006,05,03,02,44,3.30
2006,05,03,02,45,3.30
2006,05,03,02,46,3.30
2006,05,03,02,47,3.30
2006,05,03,02,48,3.30
2006,05,03,02,49,3.30
2006,05,03,02,50,3.30
2006,05,03,02,51,3.30
2006,05,03,02,52,3.30
2006,05,03,02,53,3.30
2006,05,03,02,54,3.30
2006,05,03,02,55,3.30
2006,05,03,02,56,3.30
2006,05,03,02,57,3.30
2006,05,03,02,58,3.30
2006,05,03,02,59,3.30
2006,05,03,03,00,3.30
2006,05,03,03,01,3.30
2006,05,03,03,02,3.20
2006,05,03,03,03,3.20
2006,05,03,03,04,3.20
2006,05,03,03,05,3.20
2006,05,03,03,06,3.20
2006,05,03,03,07,3.10
2006,05,03,03,08,3.10
2006,05,03,03,09,3.10
2006,05,03,03,10,3.10
2006,05,03,03,11,3.10
2006,05,03,03,12,3.10
2006,05,03,03,13,3.00
2006,05,03,03,14,2.90
2006,05,03,03,15,2.90
2006,05,03,03,16,2.90
2006,05,03,03,17,2.90
2006,05,03,03,18,2.90
2006,05,03,03,19,2.90
2006,05,03,03,20,2.90
2006,05,03,03,21,2.90
2006,05,03,03,22,2.90
2006,05,03,03,23,2.90
2006,05,03,03,24,2.90
2006,05,03,03,25,2.90
2006,05,03,03,26,2.90
2006,05,03,03,27,2.90
2006,05,03,03,28,2.90
2006,05,03,03,29,2.80
2006,05,03,03,30,2.80
2006,05,03,03,31,2.80
2006,05,03,03,32,2.80
2006,05,03,03,33,2.80
2006,05,03,03,34,2.80
2006,05,03,03,35,2.80
2006,05,03,03,36,2.70
2006,05,03,03,37,2.70
2006,05,03,03,38,2.70
2006,05,03,03,39,2.70
2006,05,03,03,40,2.70
2006,05,03,03,41,2.70
2006,05,03,03,42,2.70
2006,05,03,03,43,2.70
2006,05,03,03,44,2.70
2006,05,03,03,45,2.70
2006,05,03,03,46,2.60
2006,05,03,03,47,2.60
2006,05,03,03,48,2.60
2006,05,03,03,49,2.60
2006,05,03,03,50,2.60
2006,05,03,03,51,2.60
2006,05,03,03,52,2.60
2006,05,03,03,53,2.60
2006,05,03,03,54,2.60
2006,05,03,03,55,2.60
2006,05,03,03,56,2.60
2006,05,03,03,57,2.50
2006,05,03,03,58,2.50
2006,05,03,03,59,2.50
2006,05,03,04,00,2.50
2006,05,03,04,01,2.50
2006,05,03,04,02,2.50
2006,05,03,04,03,2.50
2006,05,03,04,04,2.50
2006,05,03,04,05,2.50
2006,05,03,04,06,2.50
2006,05,03,04,07,2.50
2006,05,03,04,08,2.50
2006,05,03,04,09,2.50
2006,05,03,04,10,2.50
2006,05,03,04,11,2.50
2006,05,03,04,12,2.40
2006,05,03,04,13,2.40
2006,05,03,04,14,2.40
2006,05,03,04,15,2.40
2006,05,03,04,16,2.40
2006,05,03,04,17,2.30
2006,05,03,04,18,2.30
2006,05,03,04,19,2.30
2006,05,03,04,20,2.30
2006,05,03,04,21,2.30
2006,05,03,04,22,2.20
2006,05,03,04,23,2.20
2006,05,03,04,24,2.20
2006,05,03,04,25,2.20
2006,05,03,04,26,2.20
2006,05,03,04,27,2.20
2006,05,03,04,28,2.20
2006,05,03,04,29,2.20
2006,05,03,04,30,2.20
2006,05,03,04,31,2.20
2006,05,03,04,32,2.20
2006,05,03,04,33,2.20
2006,05,03,04,34,2.20
2006,05,03,04,35,2.20
2006,05,03,04,36,2.20
2006,05,03,04,37,2.20
2006,05,03,04,38,2.20
2006,05,03,04,39,2.20
2006,05,03,04,40,2.10
2006,05,03,04,41,2.10
2006,05,03,04,42,2.10
2006,05,03,04,43,2.10
2006,05,03,04,44,2.00
2006,05,03,04,45,2.00
2006,05,03,04,46,2.00
2006,05,03,04,47,2.00
2006,05,03,04,48,2.00
2006,05,03,04,49,1.90
2006,05,03,04,50,1.90
2006,05,03,04,51,1.90
2006,05,03,04,52,1.90
2006,05,03,04,53,1.90
2006,05,03,04,54,1.90
2006,05,03,04,55,1.90
2006,05,03,04,56,1.90
2006,05,03,04,57,1.90
2006,05,03,04,58,1.90
2006,05,03,04,59,1.90
2006,05,03,05,00,1.90
2006,05,03,05,01,1.90
2006,05,03,05,02,1.90
2006,05,03,05,03,1.90
2006,05,03,05,04,1.90
2006,05,03,05,05,1.90
2006,05,03,05,06,1.90
2006,05,03,05,07,1.90
2006,05,03,05,08,1.90
2006,05,03,05,09,1.90
2006,05,03,05,10,1.90
2006,05,03,05,11,1.90
2006,05,03,05,12,2.00
2006,05,03,05,13,2.00
2006,05,03,05,14,2.00
2006,05,03,05,15,2.00
2006,05,03,05,16,2.00
2006,05,03,05,17,2.00
2006,05,03,05,18,2.00
2006,05,03,05,19,2.00
2006,05,03,05,20,2.00
2006,05,03,05,21,2.00
2006,05,03,05,22,2.00
2006,05,03,05,23,2.00
2006,05,03,05,24,2.00
2006,05,03,05,25,2.00
2006,05,03,05,26,2.00
2006,05,03,05,27,2.00
2006,05,03,05,28,2.00
2006,05,03,05,29,2.00
2006,05,03,05,30,2.00
2006,05,03,05,31,2.00
2006,05,03,05,32,2.00
2006,05,03,05,33,2.00
2006,05,03,05,34,2.00
2006,05,03,05,35,1.90
2006,05,03,05,36,1.90
2006,05,03,05,37,1.90
2006,05,03,05,38,1.90
2006,05,03,05,39,1.90
2006,05,03,05,40,1.80
2006,05,03,05,41,1.80
2006,05,03,05,42,1.80
2006,05,03,05,43,1.80
2006,05,03,05,44,1.80
2006,05,03,05,45,1.80
2006,05,03,05,46,1.80
2006,05,03,05,47,1.80
2006,05,03,05,48,1.70
2006,05,03,05,49,1.70
2006,05,03,05,50,1.60
2006,05,03,05,51,1.60
2006,05,03,05,52,1.60
2006,05,03,05,53,1.60
2006,05,03,05,54,1.50
2006,05,03,05,55,1.50
2006,05,03,05,56,1.50
2006,05,03,05,57,1.50
2006,05,03,05,58,1.50
2006,05,03,05,59,1.40
2006,05,03,06,00,1.40
2006,05,03,06,01,1.50
2006,05,03,06,02,1.50
2006,05,03,06,03,1.50
2006,05,03,06,04,1.50
2006,05,03,06,05,1.50
2006,05,03,06,06,1.50
2006,05,03,06,07,1.40
2006,05,03,06,08,1.40
2006,05,03,06,09,1.40
2006,05,03,06,10,1.40
2006,05,03,06,11,1.40
2006,05,03,06,12,1.40
2006,05,03,06,13,1.40
2006,05,03,06,14,1.40
2006,05,03,06,15,1.40
2006,05,03,06,16,1.40
2006,05,03,06,17,1.40
2006,05,03,06,18,1.40
2006,05,03,06,19,1.40
2006,05,03,06,20,1.40
2006,05,03,06,21,1.40
2006,05,03,06,22,1.40
2006,05,03,06,23,1.40
2006,05,03,06,24,1.40
2006,05,03,06,25,1.40
2006,05,03,06,26,1.40
2006,05,03,06,27,1.40
2006,05,03,06,28,1.50
2006,05,03,06,29,1.50
2006,05,03,06,30,1.50
2006,05,03,06,31,1.50
2006,05,03,06,32,1.50
2006,05,03,06,33,1.50
2006,05,03,06,34,1.50
2006,05,03,06,35,1.60
2006,05,03,06,36,1.60
2006,05,03,06,37,1.60
2006,05,03,06,38,1.60
2006,05,03,06,39,1.70
2006,05,03,06,40,1.80
2006,05,03,06,41,1.80
2006,05,03,06,42,1.80
2006,05,03,06,43,1.90
2006,05,03,06,44,1.90
2006,05,03,06,45,1.90
2006,05,03,06,46,2.00
2006,05,03,06,47,2.00
2006,05,03,06,48,2.10
2006,05,03,06,49,2.10
2006,05,03,06,50,2.20
2006,05,03,06,51,2.20
2006,05,03,06,52,2.30
2006,05,03,06,53,2.40
2006,05,03,06,54,2.50
2006,05,03,06,55,2.60
2006,05,03,06,56,2.70
2006,05,03,06,57,2.80
2006,05,03,06,58,2.80
2006,05,03,06,59,2.90
2006,05,03,07,00,3.00
2006,05,03,07,01,3.10
2006,05,03,07,02,3.20
2006,05,03,07,03,3.30
2006,05,03,07,04,3.40
2006,05,03,07,05,3.50
2006,05,03,07,06,3.60
2006,05,03,07,07,3.80
2006,05,03,07,08,3.80
2006,05,03,07,09,3.90
2006,05,03,07,10,4.00
2006,05,03,07,11,4.10
2006,05,03,07,12,4.20
2006,05,03,07,13,4.20
2006,05,03,07,14,4.30
2006,05,03,07,15,4.40
2006,05,03,07,16,4.50
2006,05,03,07,17,4.60
2006,05,03,07,18,4.70
2006,05,03,07,19,4.80
2006,05,03,07,20,5.00
2006,05,03,07,21,5.10
2006,05,03,07,22,5.10
2006,05,03,07,23,5.20
2006,05,03,07,24,5.40
2006,05,03,07,25,5.50
2006,05,03,07,26,5.50
2006,05,03,07,27,5.70
2006,05,03,07,28,5.80
2006,05,03,07,29,6.10
2006,05,03,07,30,6.20
2006,05,03,07,31,6.40
2006,05,03,07,32,6.50
2006,05,03,07,33,6.60
2006,05,03,07,34,6.60
2006,05,03,07,35,6.70
2006,05,03,07,36,6.80
2006,05,03,07,37,6.90
2006,05,03,07,38,7.10
2006,05,03,07,39,7.20
2006,05,03,07,40,7.30
2006,05,03,07,41,7.40
2006,05,03,07,42,7.40
2006,05,03,07,43,7.50
2006,05,03,07,44,7.50
2006,05,03,07,45,7.60
2006,05,03,07,46,7.70
2006,05,03,07,47,7.80
2006,05,03,07,48,7.90
2006,05,03,07,49,7.90
2006,05,03,07,50,8.00
2006,05,03,07,51,8.00
2006,05,03,07,52,8.20
2006,05,03,07,53,8.40
2006,05,03,07,54,8.60
2006,05,03,07,55,8.70
2006,05,03,07,56,8.80
2006,05,03,07,57,8.90
2006,05,03,07,58,8.90
2006,05,03,07,59,9.00
2006,05,03,08,00,9.00
2006,05,03,08,01,9.00
2006,05,03,08,02,9.10
2006,05,03,08,03,9.20
2006,05,03,08,04,9.30
2006,05,03,08,05,9.30
2006,05,03,08,06,9.40
2006,05,03,08,07,9.50
2006,05,03,08,08,9.60
2006,05,03,08,09,9.70
2006,05,03,08,10,9.70
2006,05,03,08,11,9.70
2006,05,03,08,12,9.90
2006,05,03,08,13,10.00
2006,05,03,08,14,10.10
2006,05,03,08,15,10.10
2006,05,03,08,16,10.20
2006,05,03,08,17,10.20
2006,05,03,08,18,10.20
2006,05,03,08,19,10.30
2006,05,03,08,20,10.30
2006,05,03,08,21,10.30
2006,05,03,08,22,10.40
2006,05,03,08,23,10.40
2006,05,03,08,24,10.40
2006,05,03,08,25,10.40
2006,05,03,08,26,10.50
2006,05,03,08,27,10.60
2006,05,03,08,28,10.60
2006,05,03,08,29,10.60
2006,05,03,08,30,10.70
2006,05,03,08,31,10.80
2006,05,03,08,32,10.80
2006,05,03,08,33,10.90
2006,05,03,08,34,10.90
2006,05,03,08,35,11.10
2006,05,03,08,36,11.10
2006,05,03,08,37,11.20
2006,05,03,08,38,11.40
2006,05,03,08,39,11.50
2006,05,03,08,40,11.60
2006,05,03,08,41,11.80
2006,05,03,08,42,12.00
2006,05,03,08,43,12.20
2006,05,03,08,44,12.40
2006,05,03,08,45,12.60
2006,05,03,08,46,12.80
2006,05,03,08,47,12.90
2006,05,03,08,48,13.00
2006,05,03,08,49,13.00
2006,05,03,08,50,13.10
2006,05,03,08,51,13.10
2006,05,03,08,52,13.00
2006,05,03,08,53,12.90
2006,05,03,08,54,12.90
2006,05,03,08,55,12.90
2006,05,03,08,56,12.90
2006,05,03,08,57,12.90
2006,05,03,08,58,12.80
2006,05,03,08,59,12.80
2006,05,03,09,00,12.90
2006,05,03,09,01,12.90
2006,05,03,09,02,12.90
2006,05,03,09,03,12.90
2006,05,03,09,04,12.90
2006,05,03,09,05,13.00
2006,05,03,09,06,13.00
2006,05,03,09,07,13.10
2006,05,03,09,08,13.10
2006,05,03,09,09,13.10
2006,05,03,09,10,13.10
2006,05,03,09,11,13.10
2006,05,03,09,12,13.10
2006,05,03,09,13,13.10
2006,05,03,09,14,13.10
2006,05,03,09,15,13.10
2006,05,03,09,16,13.10
2006,05,03,09,17,13.00
2006,05,03,09,18,13.00
2006,05,03,09,19,13.00
2006,05,03,09,20,13.10
2006,05,03,09,21,13.10
2006,05,03,09,22,13.20
2006,05,03,09,23,13.30
2006,05,03,09,24,13.40
2006,05,03,09,25,13.60
2006,05,03,09,26,13.60
2006,05,03,09,27,13.70
2006,05,03,09,28,13.90
2006,05,03,09,29,14.00
2006,05,03,09,30,14.10
2006,05,03,09,31,14.20
2006,05,03,09,32,14.30
2006,05,03,09,33,14.40
2006,05,03,09,34,14.40
2006,05,03,09,35,14.50
2006,05,03,09,36,14.50
2006,05,03,09,37,14.50
2006,05,03,09,38,14.50
2006,05,03,09,39,14.50
2006,05,03,09,40,14.50
2006,05,03,09,41,14.60
2006,05,03,09,42,14.70
2006,05,03,09,43,14.80
2006,05,03,09,44,14.80
2006,05,03,09,45,14.90
2006,05,03,09,46,15.00
2006,05,03,09,47,15.00
2006,05,03,09,48,15.10
2006,05,03,09,49,15.20
2006,05,03,09,50,15.20
2006,05,03,09,51,15.20
2006,05,03,09,52,15.20
2006,05,03,09,53,15.30
2006,05,03,09,54,15.30
2006,05,03,09,55,15.30
2006,05,03,09,56,15.30
2006,05,03,09,57,15.30
2006,05,03,09,58,15.30
2006,05,03,09,59,15.30
2006,05,03,10,00,15.30
2006,05,03,10,01,15.30
2006,05,03,10,02,15.30
2006,05,03,10,03,15.30
2006,05,03,10,04,15.30
2006,05,03,10,05,15.30
2006,05,03,10,06,15.30
2006,05,03,10,07,15.30
2006,05,03,10,08,15.30
2006,05,03,10,09,15.40
2006,05,03,10,10,15.50
2006,05,03,10,11,15.60
2006,05,03,10,12,15.70
2006,05,03,10,13,15.80
2006,05,03,10,14,15.80
2006,05,03,10,15,15.90
2006,05,03,10,16,15.90
2006,05,03,10,17,15.90
2006,05,03,10,18,15.90
2006,05,03,10,19,15.90
2006,05,03,10,20,15.90
2006,05,03,10,21,15.80
2006,05,03,10,22,15.80
2006,05,03,10,23,15.80
2006,05,03,10,24,15.80
2006,05,03,10,25,15.90
2006,05,03,10,26,15.90
2006,05,03,10,27,15.90
2006,05,03,10,28,15.80
2006,05,03,10,29,15.90
2006,05,03,10,30,16.00
2006,05,03,10,31,16.10
2006,05,03,10,32,16.10
2006,05,03,10,33,16.10
2006,05,03,10,34,16.20
2006,05,03,10,35,16.20
2006,05,03,10,36,16.20
2006,05,03,10,37,16.20
2006,05,03,10,38,16.30
2006,05,03,10,39,16.30
2006,05,03,10,40,16.40
2006,05,03,10,41,16.40
2006,05,03,10,42,16.40
2006,05,03,10,43,16.40
2006,05,03,10,44,16.40
2006,05,03,10,45,16.40
2006,05,03,10,46,16.40
2006,05,03,10,47,16.30
2006,05,03,10,48,16.30
2006,05,03,10,49,16.30
2006,05,03,10,50,16.30
2006,05,03,10,51,16.40
2006,05,03,10,52,16.40
2006,05,03,10,53,16.30
2006,05,03,10,54,16.30
2006,05,03,10,55,16.30
2006,05,03,10,56,16.20
2006,05,03,10,57,16.20
2006,05,03,10,58,16.20
2006,05,03,10,59,16.30
2006,05,03,11,00,16.30
2006,05,03,11,01,16.30
2006,05,03,11,02,16.30
2006,05,03,11,03,16.40
2006,05,03,11,04,16.40
2006,05,03,11,05,16.60
2006,05,03,11,06,16.70
2006,05,03,11,07,16.80
2006,05,03,11,08,16.80
2006,05,03,11,09,16.90
2006,05,03,11,10,16.90
2006,05,03,11,11,17.00
2006,05,03,11,12,17.00
2006,05,03,11,13,17.00
2006,05,03,11,14,17.00
2006,05,03,11,15,16.90
2006,05,03,11,16,16.90
2006,05,03,11,17,16.80
2006,05,03,11,18,16.60
2006,05,03,11,19,16.40
2006,05,03,11,20,16.30
2006,05,03,11,21,16.20
2006,05,03,11,22,16.30
2006,05,03,11,23,16.30
2006,05,03,11,24,16.40
2006,05,03,11,25,16.40
2006,05,03,11,26,16.40
2006,05,03,11,27,16.40
2006,05,03,11,28,16.40
2006,05,03,11,29,16.60
2006,05,03,11,30,16.60
2006,05,03,11,31,16.70
2006,05,03,11,32,16.70
2006,05,03,11,33,16.60
2006,05,03,11,34,16.40
2006,05,03,11,35,16.40
2006,05,03,11,36,16.40
2006,05,03,11,37,16.30
2006,05,03,11,38,16.20
2006,05,03,11,39,16.10
2006,05,03,11,40,15.90
2006,05,03,11,41,15.80
2006,05,03,11,42,15.80
2006,05,03,11,43,15.70
2006,05,03,11,44,15.50
2006,05,03,11,45,15.40
2006,05,03,11,46,15.50
2006,05,03,11,47,15.60
2006,05,03,11,48,15.80
2006,05,03,11,49,15.80
2006,05,03,11,50,15.80
2006,05,03,11,51,15.80
2006,05,03,11,52,15.90
2006,05,03,11,53,16.10
2006,05,03,11,54,16.20
2006,05,03,11,55,16.40
2006,05,03,11,56,16.40
2006,05,03,11,57,16.40
2006,05,03,11,58,16.40
2006,05,03,11,59,16.20
2006,05,03,12,00,16.10
2006,05,03,12,01,16.10
2006,05,03,12,02,16.20
2006,05,03,12,03,16.30
2006,05,03,12,04,16.30
2006,05,03,12,05,16.50
2006,05,03,12,06,16.60
2006,05,03,12,07,16.60
2006,05,03,12,08,16.70
2006,05,03,12,09,16.70
2006,05,03,12,10,16.70
2006,05,03,12,11,16.40
2006,05,03,12,12,16.20
2006,05,03,12,13,16.20
2006,05,03,12,14,16.30
2006,05,03,12,15,16.30
2006,05,03,12,16,16.30
2006,05,03,12,17,16.30
2006,05,03,12,18,16.20
2006,05,03,12,19,16.10
2006,05,03,12,20,16.20
2006,05,03,12,21,16.30
2006,05,03,12,22,16.20
2006,05,03,12,23,16.10
2006,05,03,12,24,15.90
2006,05,03,12,25,15.90
2006,05,03,12,26,15.90
2006,05,03,12,27,16.00
2006,05,03,12,28,16.10
2006,05,03,12,29,16.10
2006,05,03,12,30,16.10
2006,05,03,12,31,16.10
2006,05,03,12,32,16.20
2006,05,03,12,33,16.10
2006,05,03,12,34,16.10
2006,05,03,12,35,16.10
2006,05,03,12,36,16.20
2006,05,03,12,37,16.20
2006,05,03,12,38,16.20
2006,05,03,12,39,16.40
2006,05,03,12,40,16.40
2006,05,03,12,41,16.60
2006,05,03,12,42,16.70
2006,05,03,12,43,16.80
2006,05,03,12,44,16.90
2006,05,03,12,45,17.00
2006,05,03,12,46,17.10
2006,05,03,12,47,17.10
2006,05,03,12,48,17.30
2006,05,03,12,49,17.30
2006,05,03,12,50,17.30
2006,05,03,12,51,17.40
2006,05,03,12,52,17.50
2006,05,03,12,53,17.60
2006,05,03,12,54,17.50
2006,05,03,12,55,17.30
2006,05,03,12,56,17.20
2006,05,03,12,57,17.30
2006,05,03,12,58,17.30
2006,05,03,12,59,17.30
2006,05,03,13,00,17.20
2006,05,03,13,01,17.10
2006,05,03,13,02,17.20
2006,05,03,13,03,17.20
2006,05,03,13,04,17.20
2006,05,03,13,05,17.20
2006,05,03,13,06,17.30
2006,05,03,13,07,17.30
2006,05,03,13,08,17.30
2006,05,03,13,09,17.50
2006,05,03,13,10,17.60
2006,05,03,13,11,17.70
2006,05,03,13,12,17.80
2006,05,03,13,13,17.70
2006,05,03,13,14,17.50
2006,05,03,13,15,17.60
2006,05,03,13,16,17.50
2006,05,03,13,17,17.40
2006,05,03,13,18,17.40
2006,05,03,13,19,17.30
2006,05,03,13,20,17.20
2006,05,03,13,21,17.20
2006,05,03,13,22,17.10
2006,05,03,13,23,17.10
2006,05,03,13,24,17.10
2006,05,03,13,25,17.10
2006,05,03,13,26,17.20
2006,05,03,13,27,17.30
2006,05,03,13,28,17.30
2006,05,03,13,29,17.30
2006,05,03,13,30,17.30
2006,05,03,13,31,17.30
2006,05,03,13,32,17.30
2006,05,03,13,33,17.40
2006,05,03,13,34,17.50
2006,05,03,13,35,17.60
2006,05,03,13,36,17.80
2006,05,03,13,37,17.90
2006,05,03,13,38,17.90
2006,05,03,13,39,18.00
2006,05,03,13,40,18.10
2006,05,03,13,41,18.20
2006,05,03,13,42,18.40
2006,05,03,13,43,18.50
2006,05,03,13,44,18.40
2006,05,03,13,45,18.30
2006,05,03,13,46,18.20
2006,05,03,13,47,18.20
2006,05,03,13,48,18.20
2006,05,03,13,49,18.20
2006,05,03,13,50,18.20
2006,05,03,13,51,18.20
2006,05,03,13,52,18.20
2006,05,03,13,53,18.20
2006,05,03,13,54,18.30
2006,05,03,13,55,18.50
2006,05,03,13,56,18.50
2006,05,03,13,57,18.60
2006,05,03,13,58,18.70
2006,05,03,13,59,18.80
2006,05,03,14,00,18.90
2006,05,03,14,01,19.00
2006,05,03,14,02,18.90
2006,05,03,14,03,18.90
2006,05,03,14,04,18.80
2006,05,03,14,05,18.70
2006,05,03,14,06,18.60
2006,05,03,14,07,18.70
2006,05,03,14,08,18.70
2006,05,03,14,09,18.70
2006,05,03,14,10,18.70
2006,05,03,14,11,18.60
2006,05,03,14,12,18.40
2006,05,03,14,13,18.30
2006,05,03,14,14,18.20
2006,05,03,14,15,18.10
2006,05,03,14,16,18.20
2006,05,03,14,17,18.20
2006,05,03,14,18,18.20
2006,05,03,14,19,18.20
2006,05,03,14,20,18.30
2006,05,03,14,21,18.30
2006,05,03,14,22,18.30
2006,05,03,14,23,18.40
2006,05,03,14,24,18.40
2006,05,03,14,25,18.50
2006,05,03,14,26,18.40
2006,05,03,14,27,18.40
2006,05,03,14,28,18.40
2006,05,03,14,29,18.40
2006,05,03,14,30,18.30
2006,05,03,14,31,18.30
2006,05,03,14,32,18.30
2006,05,03,14,33,18.30
2006,05,03,14,34,18.40
2006,05,03,14,35,18.40
2006,05,03,14,36,18.40
2006,05,03,14,37,18.40
2006,05,03,14,38,18.30
2006,05,03,14,39,18.30
2006,05,03,14,40,18.30
2006,05,03,14,41,18.30
2006,05,03,14,42,18.30
2006,05,03,14,43,18.20
2006,05,03,14,44,18.10
2006,05,03,14,45,18.10
2006,05,03,14,46,18.20
2006,05,03,14,47,18.10
2006,05,03,14,48,18.00
2006,05,03,14,49,17.90
2006,05,03,14,50,17.90
2006,05,03,14,51,17.90
2006,05,03,14,52,17.90
2006,05,03,14,53,18.00
2006,05,03,14,54,18.10
2006,05,03,14,55,18.20
2006,05,03,14,56,18.20
2006,05,03,14,57,18.10
2006,05,03,14,58,18.10
2006,05,03,14,59,18.10
2006,05,03,15,00,18.10
2006,05,03,15,01,18.20
2006,05,03,15,02,18.20
2006,05,03,15,03,18.20
2006,05,03,15,04,18.30
2006,05,03,15,05,18.30
2006,05,03,15,06,18.30
2006,05,03,15,07,18.20
2006,05,03,15,08,18.30
2006,05,03,15,09,18.40
2006,05,03,15,10,18.40
2006,05,03,15,11,18.40
2006,05,03,15,12,18.40
2006,05,03,15,13,18.40
2006,05,03,15,14,18.40
2006,05,03,15,15,18.40
2006,05,03,15,16,18.50
2006,05,03,15,17,18.60
2006,05,03,15,18,18.60
2006,05,03,15,19,18.50
2006,05,03,15,20,18.60
2006,05,03,15,21,18.60
2006,05,03,15,22,18.60
2006,05,03,15,23,18.70
2006,05,03,15,24,18.80
2006,05,03,15,25,18.80
2006,05,03,15,26,18.70
2006,05,03,15,27,18.80
2006,05,03,15,28,18.80
2006,05,03,15,29,18.80
2006,05,03,15,30,18.90
2006,05,03,15,31,18.90
2006,05,03,15,32,19.00
2006,05,03,15,33,19.10
2006,05,03,15,34,19.00
2006,05,03,15,35,18.90
2006,05,03,15,36,18.90
2006,05,03,15,37,18.90
2006,05,03,15,38,18.90
2006,05,03,15,39,18.90
2006,05,03,15,40,18.80
2006,05,03,15,41,18.80
2006,05,03,15,42,18.80
2006,05,03,15,43,18.80
2006,05,03,15,44,18.90
2006,05,03,15,45,18.90
2006,05,03,15,46,18.90
2006,05,03,15,47,18.90
2006,05,03,15,48,19.00
2006,05,03,15,49,19.00
2006,05,03,15,50,18.90
2006,05,03,15,51,18.90
2006,05,03,15,52,19.00
2006,05,03,15,53,19.10
2006,05,03,15,54,19.10
2006,05,03,15,55,18.90
2006,05,03,15,56,18.80
2006,05,03,15,57,18.80
2006,05,03,15,58,18.80
2006,05,03,15,59,18.70
2006,05,03,16,00,18.60
2006,05,03,16,01,18.60
2006,05,03,16,02,18.70
2006,05,03,16,03,18.80
2006,05,03,16,04,18.90
2006,05,03,16,05,18.90
2006,05,03,16,06,19.00
2006,05,03,16,07,19.10
2006,05,03,16,08,19.30
2006,05,03,16,09,19.40
2006,05,03,16,10,19.40
2006,05,03,16,11,19.50
2006,05,03,16,12,19.50
2006,05,03,16,13,19.50
2006,05,03,16,14,19.60
2006,05,03,16,15,19.60
2006,05,03,16,16,19.60
2006,05,03,16,17,19.70
2006,05,03,16,18,19.80
2006,05,03,16,19,19.80
2006,05,03,16,20,19.90
2006,05,03,16,21,19.90
2006,05,03,16,22,19.80
2006,05,03,16,23,19.60
2006,05,03,16,24,19.50
2006,05,03,16,25,19.20
2006,05,03,16,26,19.10
2006,05,03,16,27,18.90
2006,05,03,16,28,18.90
2006,05,03,16,29,18.90
2006,05,03,16,30,18.90
2006,05,03,16,31,19.10
2006,05,03,16,32,19.10
2006,05,03,16,33,19.20
2006,05,03,16,34,19.30
2006,05,03,16,35,19.40
2006,05,03,16,36,19.50
2006,05,03,16,37,19.60
2006,05,03,16,38,19.60
2006,05,03,16,39,19.70
2006,05,03,16,40,19.70
2006,05,03,16,41,19.70
2006,05,03,16,42,19.80
2006,05,03,16,43,19.80
2006,05,03,16,44,19.80
2006,05,03,16,45,19.80
2006,05,03,16,46,19.80
2006,05,03,16,47,19.90
2006,05,03,16,48,19.90
2006,05,03,16,49,19.90
2006,05,03,16,50,19.90
2006,05,03,16,51,19.90
2006,05,03,16,52,19.90
2006,05,03,16,53,19.90
2006,05,03,16,54,19.90
2006,05,03,16,55,19.90
2006,05,03,16,56,19.80
2006,05,03,16,57,19.70
2006,05,03,16,58,19.70
2006,05,03,16,59,19.70
2006,05,03,17,00,19.70
2006,05,03,17,01,19.60
2006,05,03,17,02,19.60
2006,05,03,17,03,19.60
2006,05,03,17,04,19.50
2006,05,03,17,05,19.40
2006,05,03,17,06,19.30
2006,05,03,17,07,19.10
2006,05,03,17,08,19.00
2006,05,03,17,09,18.90
2006,05,03,17,10,18.90
2006,05,03,17,11,18.80
2006,05,03,17,12,18.70
2006,05,03,17,13,18.70
2006,05,03,17,14,18.70
2006,05,03,17,15,18.60
2006,05,03,17,16,18.60
2006,05,03,17,17,18.60
2006,05,03,17,18,18.60
2006,05,03,17,19,18.70
2006,05,03,17,20,18.70
2006,05,03,17,21,18.80
2006,05,03,17,22,18.80
2006,05,03,17,23,18.80
2006,05,03,17,24,18.80
2006,05,03,17,25,18.80
2006,05,03,17,26,18.90
2006,05,03,17,27,19.00
2006,05,03,17,28,19.10
2006,05,03,17,29,19.20
2006,05,03,17,30,19.40
2006,05,03,17,31,19.40
2006,05,03,17,32,19.50
2006,05,03,17,33,19.50
2006,05,03,17,34,19.50
2006,05,03,17,35,19.60
2006,05,03,17,36,19.60
2006,05,03,17,37,19.70
2006,05,03,17,38,19.90
2006,05,03,17,39,20.00
2006,05,03,17,40,20.10